Weather History for Hawthorne, CA

Change the Weather History Date:

Saturday, March 9, 2013

  Actual Average Record
Temperature  
Mean Temperature 55 °F -  
Max Temperature 62 °F 63 °F 84 °F (2004)
Min Temperature 48 °F 50 °F 38 °F (1952)
Degree Days  
Heating Degree Days 10    
Growing Degree Days 5 (Base 50)    
Moisture  
Dew Point 44 °F    
Average Humidity 66    
Maximum Humidity 83    
Minimum Humidity 41    
Precipitation  
Precipitation 0.00 in - - ()
Sea Level Pressure  
Sea Level Pressure 30.12 in    
Wind  
Wind Speed 3 mph (WSW)    
Max Wind Speed 12 mph    
Max Gust Speed 20 mph    
Visibility 10 miles    
Events      
Averages and records for this station are not official NWS values.
T = Trace of Precipitation, MM = Missing Value Source: NWS Daily Summary

Daily Weather History Graph

Daily Weather History Graph

Search for Another Location

Airport:

Trip Planner

Search our weather history database for the weather conditions in past years. The results will help you decide how hot, cold, wet, or windy it might be!

Date:

Astronomy

Mar. 09, 2013 Rise Set
Actual Time 6:11 AM PST 5:56 PM PST
Civil Twilight 5:46 AM PST 6:21 PM PST
Nautical Twilight 5:17 AM PST 6:50 PM PST
Astronomical Twilight 4:48 AM PST 7:19 PM PST
Moon 4:33 AM PST (3/9) 4:07 PM PST (3/9)
Length of Visible Light 12h 35m
Length of Day
11h 45m
Waning Crescent, 5% of the Moon is Illuminated
Mar 9
Waning Crescent
Mar 11
New
Mar 19
First Quarter
Mar 27
Full
Apr 2
Last Quarter

Hourly Weather History & Observations

Time (PST) Temp. Dew Point Humidity Pressure Visibility Wind Dir Wind Speed Gust Speed Precip Events Conditions
12:53 AM 51.1 °F 46.0 °F 83% 30.04 in 10.0 mi Calm Calm - N/A   Clear
1:31 AM 51.8 °F 46.4 °F 82% 30.05 in 10.0 mi Calm Calm - N/A   Mostly Cloudy
1:53 AM 51.1 °F 46.0 °F 83% 30.05 in 10.0 mi Calm Calm - N/A   Scattered Clouds
2:29 AM 51.8 °F 44.6 °F 76% 30.05 in 10.0 mi Calm Calm - N/A   Mostly Cloudy
2:53 AM 51.1 °F 43.0 °F 74% 30.05 in 10.0 mi NW 3.5 mph - N/A   Scattered Clouds
3:53 AM 50.0 °F 43.0 °F 77% 30.05 in 10.0 mi Calm Calm - N/A   Clear
4:53 AM 48.9 °F 42.1 °F 77% 30.06 in 10.0 mi Calm Calm - N/A   Clear
5:53 AM 48.9 °F 41.0 °F 74% 30.09 in 10.0 mi Calm Calm - N/A   Clear
6:53 AM 48.9 °F 42.1 °F 77% 30.09 in 10.0 mi Calm Calm - N/A   Clear
7:53 AM 54.0 °F 42.1 °F 64% 30.11 in 10.0 mi West 4.6 mph - N/A   Clear
8:53 AM 57.0 °F 41.0 °F 55% 30.12 in 10.0 mi Variable 3.5 mph - N/A   Clear
9:53 AM 61.0 °F 39.0 °F 44% 30.12 in 10.0 mi ENE 8.1 mph - N/A   Clear
10:53 AM 61.0 °F 39.9 °F 46% 30.14 in 10.0 mi WSW 5.8 mph - N/A   Partly Cloudy
11:53 AM 62.1 °F 41.0 °F 46% 30.14 in 10.0 mi WSW 11.5 mph 16.1 mph N/A   Clear
12:53 PM 61.0 °F 39.9 °F 46% 30.13 in 10.0 mi SW 9.2 mph - N/A   Clear
1:53 PM 62.1 °F 39.9 °F 44% 30.12 in 10.0 mi West 10.4 mph 18.4 mph N/A   Clear
2:53 PM 62.1 °F 37.9 °F 41% 30.12 in 10.0 mi WSW 11.5 mph 19.6 mph N/A   Clear
3:53 PM 62.1 °F 43.0 °F 50% 30.12 in 10.0 mi West 6.9 mph - N/A   Clear
4:53 PM 59.0 °F 46.9 °F 64% 30.12 in 10.0 mi SW 9.2 mph - N/A   Clear
5:53 PM 57.9 °F 48.0 °F 70% 30.14 in 10.0 mi West 8.1 mph - N/A   Clear
6:53 PM 57.9 °F 48.0 °F 70% 30.16 in 10.0 mi SW 4.6 mph - N/A   Clear
7:53 PM 57.0 °F 48.0 °F 72% 30.17 in 10.0 mi Calm Calm - N/A   Clear
8:53 PM 55.9 °F 48.0 °F 75% 30.19 in 10.0 mi Calm Calm - N/A   Clear
9:53 PM 55.9 °F 48.0 °F 75% 30.20 in 10.0 mi Calm Calm - N/A   Clear
10:53 PM 54.0 °F 46.9 °F 77% 30.22 in 10.0 mi Calm Calm - N/A   Clear
11:53 PM 54.0 °F 46.9 °F 77% 30.22 in 10.0 mi East 3.5 mph - N/A   Clear